RH
63 43 40 51 53 47 30 27 28 35 38 36 28 24 19 14 16 25 44 29 41 48 59 77 100 100 100 100 100 100 100 97 84 100 100 91 100 85
38 43 53 48 38 32 29 38 40 35 34 36 29 22 17 10 7 12 28 33 40 54 70 80 92 100 100 100 100 96 100 100 97 90 100 100 100 89
46 55 60 42 33 30 43 46 42 37 36 37 34 25 18 9 5 6 13 26 38 73 99 75 79 100 100 100 96 93 100 100 100 100 100 100 100 100
66 62 44 36 36 42 45 45 41 43 41 42 40 32 22 14 8 10 12 21 51 84 100 99 100 100 100 100 100 85 100 100 100 100 100 100 100 100
59 47 38 40 44 44 48 42 46 43 42 43 43 39 30 25 24 23 29 58 72 88 100 100 100 100 100 100 100 100 100 100 100 100 100 100 100 100
45 36 41 44 47 52 46 44 47 45 45 46 44 42 47 50 45 42 44 58 73 73 100 100 100 100 100 100 100 100 100 100 100 100 100 100 100 100
37 40 45 49 55 52 46 47 49 49 50 45 43 44 44 45 51 58 58 54 59 78 82 93 100 100 100 100 100 100 100 100 98 85 100 100 100 100
41 49 51 52 58 49 49 54 53 50 51 54 53 53 53 46 42 43 54 67 73 72 68 73 88 94 88 88 89 100 100 100 100 100 92 96 93 86
48 53 51 54 55 54 57 56 56 58 61 66 69 63 58 52 57 56 57 59 64 75 90 94 90 96 92 94 98 84 85 88 90 94 94 96 95 87
54 54 54 58 61 59 56 59 64 71 75 72 71 64 59 57 60 63 70 76 78 79 84 83 70 68 72 80 86 87 87 85 84 83 80 75 72 70
56 56 57 61 63 60 60 69 75 79 83 79 69 65 60 56 57 57 59 62 65 67 71 75 75 73 73 73 70 66 60 60 59 55 54 53 53 54
53 55 57 62 69 72 79 84 89 91 86 76 73 63 59 59 61 63 63 63 62 58 59 59 55 55 56 58 58 57 56 55 52 49 47 44 41 40
55 57 65 74 81 86 92 94 93 92 85 82 67 64 63 64 66 67 64 56 52 49 51 51 45 43 43 42 42 40 41 41 39 37 37 36 36 36
68 75 83 86 93 97 93 93 96 93 86 70 68 68 70 70 72 71 55 49 49 46 41 39 38 38 39 38 37 32 32 28 24 19 16 14 13 12
85 90 96 98 93 89 95 95 90 77 73 75 78 78 74 73 77 61 51 53 45 38 38 40 39 33 22 14 12 10 9 9 10 10 10 11 13 14
83 86 87 87 84 80 76 75 78 79 82 86 82 79 77 77 67 51 51 49 40 38 36 26 14 12 12 12 13 10 8 10 8 10 12 12 14 14
68 72 74 75 77 80 82 87 84 83 82 84 86 79 78 72 55 53 51 42 39 32 16 14 15 13 12 10 10 9 8 7 8 10 13 15 14 13
74 75 76 79 81 85 89 87 89 87 90 89 82 82 73 64 56 56 47 42 34 19 14 13 13 14 12 10 8 8 6 7 8 10 13 16 15 14
71 73 74 72 74 77 80 85 93 99 92 86 81 73 72 61 63 47 44 37 24 17 16 15 13 12 11 9 6 6 9 7 7 8 9 10 11 8
79 78 76 78 82 84 93 95 88 90 86 81 73 70 65 64 47 45 41 34 20 21 16 15 14 12 11 10 8 7 10 9 7 6 6 7 7 6
85 81 78 78 85 95 93 85 90 87 86 75 66 63 58 46 43 43 41 23 22 21 18 18 18 16 14 13 13 11 10 11 10 10 10 11 11 10
80 79 88 95 99 92 87 95 91 81 71 62 57 47 43 42 40 41 33 20 22 20 20 23 27 26 25 22 18 15 14 13 12 12 13 14 13 13
78 85 100 100 96 93 99 93 84 66 55 51 44 41 41 36 36 34 23 21 23 20 24 33 44 40 36 37 35 32 33 30 29 27 20 19 18 16
Wind_Speed
116 109 99 99 102 105 96 90 87 80 73 79 81 82 76 70 66 73 88 87 81 78 74 70 73 72 72 68 67 65 62 66 68 67 72 71 73 72
104 96 97 100 102 93 88 82 77 72 71 74 77 78 69 61 60 63 76 83 80 74 73 75 73 70 77 78 73 68 66 70 73 72 76 80 79 78
95 95 100 100 88 84 78 73 67 67 66 70 76 77 66 54 47 50 57 68 66 66 69 76 70 70 77 81 79 71 72 78 78 75 75 76 77 75
93 99 96 85 79 76 68 62 62 61 61 63 69 71 63 48 39 36 38 50 59 62 68 70 72 73 77 80 81 79 76 84 80 81 79 83 86 88
96 92 80 75 72 65 58 57 57 57 58 60 62 65 60 49 40 32 28 35 45 56 64 71 73 81 81 84 85 85 85 87 89 93 96 92 94 92
86 77 73 69 62 56 54 55 55 57 57 58 57 56 55 53 49 42 34 30 37 48 61 68 75 78 79 82 85 92 94 98 100 101 101 100 99 103
74 70 67 61 55 55 54 54 55 56 58 59 60 58 55 49 43 41 37 32 29 31 37 51 66 77 81 80 86 92 96 100 102 102 101 105 107 110
67 64 60 55 52 53 54 55 57 58 59 60 61 61 61 56 51 44 39 36 35 34 32 34 41 48 54 64 72 88 97 104 102 101 101 104 109 113
62 61 55 54 52 52 55 58 59 60 61 64 64 65 63 59 56 53 49 46 43 41 43 48 45 51 53 57 62 65 70 77 82 89 95 101 104 102
58 56 53 54 53 54 56 58 60 62 65 66 67 67 64 60 57 54 53 53 54 55 57 61 59 61 63 66 70 73 75 78 80 83 85 87 89 90
54 54 54 54 55 57 59 60 63 65 66 68 68 67 63 59 59 59 60 60 61 60 61 64 67 71 73 77 80 82 83 85 87 88 89 89 91 93
51 52 52 54 56 58 59 61 63 65 67 68 68 65 63 65 65 67 69 69 68 68 69 72 73 75 76 79 82 84 86 88 90 90 90 90 89 90
50 50 51 52 55 58 59 62 64 66 67 66 65 66 68 70 72 75 76 74 73 72 71 72 73 72 74 76 77 78 79 80 81 81 82 82 83 85
48 49 51 53 55 57 59 62 64 66 64 64 67 69 72 75 78 81 79 76 73 71 70 69 70 70 72 75 78 75 76 76 76 77 76 75 77 80
49 50 52 54 57 59 61 61 61 61 64 68 71 74 77 79 83 83 77 74 72 70 69 70 71 73 73 73 73 72 69 66 68 68 65 65 68 70
48 50 51 52 53 54 55 57 61 66 69 72 74 77 80 83 85 78 75 74 72 70 72 70 67 65 65 64 66 67 58 59 58 56 57 60 60 62
42 45 47 50 53 56 60 63 67 69 71 73 77 80 83 86 81 76 74 72 71 72 68 62 60 59 58 58 57 54 52 48 46 43 42 48 51 51
49 51 54 55 57 59 62 65 68 71 73 77 79 82 85 83 76 72 70 69 72 69 63 57 50 46 49 50 46 46 45 44 39 36 35 34 40 40
51 53 54 56 58 61 64 67 70 73 76 79 82 84 84 77 71 69 67 69 67 62 56 47 44 42 42 43 44 36 39 40 38 35 29 27 34 34
54 56 59 61 64 67 69 72 73 76 80 82 84 83 76 69 67 64 66 66 60 54 48 39 38 38 38 40 40 35 31 36 38 38 35 35 38 41
57 60 63 66 69 71 74 77 79 81 83 84 81 76 68 66 63 63 66 60 53 48 42 35 34 34 33 32 33 32 29 28 32 31 27 27 28 32
61 65 69 72 74 76 79 80 82 83 83 80 75 70 65 62 62 64 62 56 47 40 35 32 32 30 29 29 28 27 26 26 25 24 23 23 24 23
67 69 73 76 78 80 81 81 82 82 78 74 71 66 62 63 63 62 58 49 43 35 30 26 27 27 26 26 27 25 24 22 23 25 24 22 22 22
Wind_Direction
302 302 301 302 304 304 304 305 306 307 307 306 308 308 304 293 280 270 264 271 266 263 259 258 254 256 256 256 263 253 254 260 260 258 261 264 262 264
301 300 302 303 304 303 304 306 306 307 310 309 313 315 310 299 287 268 260 262 264 260 256 255 254 254 251 256 259 249 254 259 258 260 260 263 266 265
298 302 303 303 302 302 305 303 305 308 311 316 319 321 319 310 293 278 262 257 256 254 251 252 255 251 246 251 254 250 256 258 257 256 261 267 270 272
300 301 302 300 301 302 301 301 305 308 313 316 319 322 326 321 310 293 283 264 251 247 248 252 251 249 247 253 254 253 249 254 256 259 257 262 266 268
300 301 299 299 299 299 297 300 302 305 310 314 320 326 332 337 337 320 292 269 260 251 248 249 250 251 252 255 255 254 250 249 251 255 258 258 259 261
299 297 296 297 296 294 294 296 300 305 309 313 317 325 334 338 339 340 326 299 278 262 251 250 251 254 255 256 255 252 251 252 252 256 258 258 260 261
294 294 295 296 293 291 293 296 301 305 309 313 316 322 326 329 328 326 327 325 313 294 274 262 257 258 257 260 258 255 255 256 257 257 257 257 259 261
293 293 294 293 288 291 294 297 301 305 309 313 316 319 321 322 321 319 313 312 309 303 297 288 278 274 270 263 262 259 259 261 262 263 263 261 261 263
292 291 290 290 289 291 293 297 302 307 309 312 315 317 317 319 319 318 315 309 303 298 292 284 281 277 273 269 266 265 262 262 262 263 263 263 264 265
291 289 290 287 288 289 292 297 303 306 308 310 313 315 315 316 316 314 312 307 303 299 295 291 287 281 277 274 271 269 268 267 267 266 265 265 265 265
288 286 286 286 288 289 294 298 301 304 308 311 312 312 314 315 314 313 310 306 301 296 290 285 283 281 279 278 277 276 276 275 274 273 271 270 269 269
288 286 287 289 289 291 295 299 302 305 306 309 310 311 314 314 314 313 311 307 301 296 292 288 285 283 281 279 278 276 274 274 274 274 273 273 273 272
289 290 291 291 292 294 298 300 302 304 306 308 309 311 313 313 313 314 311 307 301 299 296 293 291 288 285 282 280 279 277 276 276 276 275 275 274 274
292 293 293 294 295 298 299 300 303 305 306 307 309 310 312 313 315 314 310 306 302 301 299 296 294 291 288 286 285 283 280 279 278 276 275 274 273 272
293 294 295 297 298 301 303 303 303 304 305 307 309 311 312 314 315 313 309 306 305 303 302 300 297 294 292 289 286 283 283 280 278 278 277 275 272 271
295 297 299 301 304 304 303 304 304 305 306 308 309 310 313 314 315 312 309 308 307 306 305 303 300 296 292 289 286 286 286 283 281 278 277 274 270 270
304 306 307 306 304 303 304 304 305 307 308 309 309 311 313 316 315 311 309 308 307 308 307 304 301 298 294 289 288 289 291 289 289 287 278 273 269 267
305 304 302 302 304 305 306 307 308 308 308 308 310 312 315 316 312 310 309 309 310 312 309 308 305 297 292 291 292 293 294 295 295 291 283 274 267 262
305 305 306 307 308 309 310 310 310 308 308 310 311 314 316 314 311 310 310 311 313 313 311 312 306 301 299 295 293 296 299 292 287 282 278 272 266 262
305 307 308 309 309 310 311 310 309 310 310 311 313 315 314 312 311 311 311 314 316 312 313 313 310 307 303 300 298 298 292 285 279 276 275 273 271 272
306 308 309 310 309 309 310 311 311 311 311 311 314 314 313 311 312 311 313 316 315 312 313 317 316 313 310 308 306 306 301 291 288 290 291 281 270 265
303 306 309 311 311 310 312 311 311 310 311 313 314 314 312 312 312 313 314 315 310 309 311 316 317 317 318 317 317 315 312 306 300 294 291 286 283 281
302 306 308 309 309 311 311 310 310 310 312 313 314 313 312 312 313 313 312 309 306 306 308 314 317 320 324 328 331 331 330 326 320 314 307 300 293 286